Location: Ferma
(41.9500°N, 44.5167°E)
Time: 18:38:18
(UTC+00:00)

CENTAUR R/B - Pass Details

Date: 24 October 2021
Orbit: 728 x 1459 km, 63.4° (Epoch: 26 November)

Event Time Altitude Azimuth Distance (km) Brightness Sun altitude
Rises 18:06:07 0° 325° (NW) 4,150 6.4 -44.1°
Reaches altitude 10° 18:08:50 10° 330° (NNW) 3,273 5.7 -44.6°
Enters shadow 18:12:34 30° 344° (NNW) 2,205 4.5 -45.2°
